TimeEST,TemperatureF,Dew PointF,Humidity,Sea Level PressureIn,VisibilityMPH,Wind Direction,Wind SpeedMPH,Gust SpeedMPH,PrecipitationIn,Events,Conditions,WindDirDegrees,DateUTC
12:04 AM,41.0,35.6,81,30.01,10.0,NNW,8.1,-,N/A,,Scattered Clouds,330,2012-11-09 05:04:00
12:34 AM,39.2,35.6,87,30.02,10.0,NNW,5.8,-,N/A,,Mostly Cloudy,340,2012-11-09 05:34:00
12:53 AM,41.0,37.0,86,30.05,10.0,North,3.5,-,N/A,,Overcast,360,2012-11-09 05:53:00
1:53 AM,41.0,37.0,86,30.06,10.0,North,8.1,-,N/A,,Overcast,350,2012-11-09 06:53:00
2:33 AM,41.0,37.4,87,30.05,10.0,NNE,5.8,-,N/A,,Overcast,20,2012-11-09 07:33:00
2:53 AM,39.9,36.0,86,30.08,10.0,North,8.1,-,N/A,,Overcast,10,2012-11-09 07:53:00
3:53 AM,39.0,34.0,82,30.09,10.0,North,9.2,-,N/A,,Overcast,10,2012-11-09 08:53:00
4:53 AM,39.0,34.0,82,30.11,10.0,NNE,10.4,-,N/A,,Overcast,20,2012-11-09 09:53:00
5:13 AM,37.4,33.8,87,30.09,10.0,NNE,9.2,-,N/A,,Overcast,20,2012-11-09 10:13:00
5:53 AM,37.9,33.1,83,30.13,10.0,NNE,8.1,-,N/A,,Overcast,20,2012-11-09 10:53:00
6:15 AM,37.4,33.8,87,30.11,10.0,NNE,9.2,-,N/A,,Overcast,20,2012-11-09 11:15:00
6:38 AM,37.4,33.8,87,30.11,10.0,NNE,8.1,-,N/A,,Overcast,20,2012-11-09 11:38:00
6:53 AM,37.0,33.1,86,30.14,10.0,NNE,6.9,-,N/A,,Overcast,20,2012-11-09 11:53:00
7:36 AM,37.4,33.8,87,30.11,10.0,NNE,6.9,-,N/A,,Overcast,20,2012-11-09 12:36:00
7:53 AM,37.0,34.0,89,30.16,10.0,North,6.9,-,N/A,,Overcast,10,2012-11-09 12:53:00
8:14 AM,37.4,33.8,87,30.13,10.0,NNE,8.1,-,N/A,,Overcast,20,2012-11-09 13:14:00
8:26 AM,37.4,33.8,87,30.13,10.0,NNE,9.2,-,N/A,,Overcast,20,2012-11-09 13:26:00
8:45 AM,37.4,33.8,87,30.14,10.0,NE,6.9,-,N/A,,Overcast,40,2012-11-09 13:45:00
8:53 AM,37.0,33.1,86,30.17,10.0,NNE,8.1,-,N/A,,Overcast,30,2012-11-09 13:53:00
9:53 AM,37.9,33.1,83,30.18,10.0,NNE,9.2,-,N/A,,Overcast,30,2012-11-09 14:53:00
10:00 AM,37.4,33.8,87,30.14,10.0,NE,11.5,-,N/A,,Overcast,50,2012-11-09 15:00:00
10:53 AM,37.9,32.0,79,30.19,10.0,NE,6.9,-,N/A,,Overcast,40,2012-11-09 15:53:00
11:53 AM,39.0,30.9,73,30.19,10.0,NE,8.1,-,N/A,,Overcast,40,2012-11-09 16:53:00
12:53 PM,39.0,30.9,73,30.17,10.0,East,3.5,-,N/A,,Overcast,90,2012-11-09 17:53:00
1:53 PM,39.0,32.0,76,30.17,10.0,NNE,6.9,-,N/A,,Overcast,20,2012-11-09 18:53:00
2:53 PM,37.0,32.0,82,30.18,10.0,NNE,13.8,-,N/A,,Overcast,20,2012-11-09 19:53:00
3:53 PM,36.0,30.9,82,30.18,10.0,NE,11.5,-,N/A,,Overcast,40,2012-11-09 20:53:00
4:53 PM,35.1,28.9,78,30.20,10.0,NE,11.5,-,N/A,,Overcast,40,2012-11-09 21:53:00
5:53 PM,33.1,28.0,82,30.21,10.0,NE,9.2,-,N/A,,Overcast,40,2012-11-09 22:53:00
6:53 PM,32.0,28.0,85,30.23,10.0,ENE,9.2,-,N/A,,Overcast,60,2012-11-09 23:53:00
7:23 PM,30.2,28.4,93,30.18,10.0,ENE,10.4,-,N/A,,Partly Cloudy,60,2012-11-10 00:23:00
7:53 PM,30.9,26.1,82,30.22,10.0,ENE,9.2,-,N/A,,Clear,70,2012-11-10 00:53:00
8:28 PM,30.2,26.6,86,30.18,10.0,ENE,8.1,-,N/A,,Mostly Cloudy,60,2012-11-10 01:28:00
8:53 PM,30.0,27.0,88,30.23,10.0,East,4.6,-,N/A,,Mostly Cloudy,80,2012-11-10 01:53:00
9:34 PM,30.2,26.6,86,30.19,10.0,ENE,5.8,-,N/A,,Partly Cloudy,70,2012-11-10 02:34:00
9:53 PM,30.9,25.0,79,30.23,10.0,NE,5.8,-,N/A,,Mostly Cloudy,50,2012-11-10 02:53:00
10:53 PM,30.0,25.0,82,30.23,10.0,NE,4.6,-,N/A,,Mostly Cloudy,40,2012-11-10 03:53:00
11:53 PM,32.0,25.0,75,30.22,10.0,ENE,10.4,-,N/A,,Overcast,60,2012-11-10 04:53:00